Details for KLM (Royal Dutch Airlines) at EHAM




Go Back


Latest METAR
Local Time

EHAM 180555Z 19007KT 9999 FEW045 16/14 Q1020 NOSIG
18/08/2018, 08:27:02

Description
Results
KLM (Royal Dutch Airlines) Logo
Number of Pilots based at EHAM
2 Pilots Based here
Number of KLM (Royal Dutch Airlines) Flights Departed from EHAM
31 Flights Departed
Number of KLM (Royal Dutch Airlines) Flights Arrived at EHAM
32 Flights Arrived
Number of KLM (Royal Dutch Airlines) Schedules Departing from EHAM
267 Schedules
Number of KLM (Royal Dutch Airlines) Schedules Arriving at EHAM
282 Schedules
Number of KLM (Royal Dutch Airlines) Schedules Departing from EHAM availible today
197 Schedules Today
Number of KLM (Royal Dutch Airlines) Schedules Arriving at EHAM availible today
199 Schedules Today
Average Landing Rate at EHAM
-212 fpm
KLM (Royal Dutch Airlines) Average Landing Rate at EHAM
-198 fpm
Total Fuel Purchased at EHAM by KLM (Royal Dutch Airlines)
642,002.45 kgs / 1,415,358.60 lbs

Pilots Based at EHAM


Pilot ID
Pilot Name
Pilot Rank
No. of Flights
No. of Flying Hours
Youri Rutten
84
199.28
James Hatcher
129
549.28
Content